Inquirer Daily News

Weather

Get conditions and forecasts for any City, State, ZIP code or Country:  
Trenton, NJ
on Wednesday, November 28, 2012

Wednesday
Previous Day Next Day
Daily Summary
 ActualAverageRecord
Temperature
Mean Temperature °F 42°F  
Max Temperature 41°F 49°F 76°F (1896)
Min Temperature 29°F 34°F 14°F (1930)
Degree Days
Heating Degree Days 30 24  
Month to date heating degree days 642 532  
Since 1 July heating degree days 949 929  
Cooling Degree Days 0 0  
Month to date cooling degree days 0 0  
Year to date cooling degree days 1234 965  
Moisture
Dew Point 26°F   
Average Humidity 70    
Maximum Humidity 92    
Minimum Humidity 48    
Precipitation
Precipitation 0.00 in 0.13 in 2.80 in (1993)
Month to date precipitation 1.18 3.04  
Year to date precipitation 33.23 42.47  
Wind
Wind Speed 6 mph   
Max Wind Speed 16 mph   
Max Gust Speed 25 mph   
Visibility 10 miles   
Events     

Key: T is trace of precipitation, MM is missing value
Source: NWS Daily Summary
Time(EST)TemperatureDew PointHumidity Pressure Visibility Wind DirectionWind SpeedGust SpeedPrecipitationEvents Conditions
12:53 AM 36.0°F 30.9°F 82% 30.18 in 10.0 miles NNE 4.6 mph - N/A   Overcast
1:53 AM 35.1°F 30.9°F 85% 30.19 in 10.0 miles North 5.8 mph - N/A   Overcast
2:53 AM 35.1°F 30.9°F 85% 30.19 in 10.0 miles North 5.8 mph - N/A   Overcast
3:53 AM 35.1°F 30.0°F 82% 30.21 in 10.0 miles NNW 5.8 mph - N/A   Overcast
4:53 AM 34.0°F 30.9°F 89% 30.22 in 10.0 miles NNW 3.5 mph - N/A   Overcast
5:53 AM 34.0°F 30.9°F 89% 30.21 in 9.0 miles NNW 3.5 mph - N/A   Overcast
6:53 AM 32.0°F 30.0°F 92% 30.21 in 8.0 miles NNW 4.6 mph - N/A   Scattered Clouds
7:53 AM 33.1°F 30.0°F 89% 30.24 in 7.0 miles NNW 6.9 mph - N/A   Overcast
8:53 AM 34.0°F 28.9°F 82% 30.25 in 8.0 miles NW 6.9 mph - N/A   Mostly Cloudy
9:53 AM 35.1°F 28.0°F 76% 30.25 in 10.0 miles NNW 5.8 mph - N/A   Partly Cloudy
10:53 AM 39.0°F 27.0°F 62% 30.24 in 10.0 miles NNW 5.8 mph - N/A   Clear
11:53 AM 39.9°F 23.0°F 51% 30.22 in 10.0 miles NW 9.2 mph - N/A   Scattered Clouds
12:53 PM 39.0°F 21.0°F 49% 30.21 in 10.0 miles NW 12.7 mph - N/A   Scattered Clouds
1:53 PM 39.0°F 23.0°F 53% 30.20 in 10.0 miles NW 9.2 mph 16.1 mph N/A   Overcast
2:53 PM 37.9°F 21.0°F 51% 30.21 in 10.0 miles NW 10.4 mph 18.4 mph N/A   Partly Cloudy
3:53 PM 37.9°F 21.0°F 51% 30.20 in 10.0 miles NW 8.1 mph - N/A   Clear
4:53 PM 36.0°F 21.0°F 55% 30.22 in 10.0 miles NW 3.5 mph - N/A   Clear
5:53 PM 34.0°F 21.9°F 61% 30.25 in 10.0 miles Calm Calm - N/A   Clear
6:53 PM 33.1°F 21.9°F 64% 30.25 in 10.0 miles Calm Calm - N/A   Clear
7:53 PM 30.9°F 21.9°F 69% 30.26 in 10.0 miles West 4.6 mph - N/A   Clear
8:53 PM 32.0°F 23.0°F 69% 30.28 in 9.0 miles West 4.6 mph - N/A   Clear
9:53 PM 30.0°F 21.9°F 72% 30.29 in 9.0 miles West 3.5 mph - N/A   Clear
10:53 PM 30.9°F 23.0°F 72% 30.30 in 9.0 miles WSW 3.5 mph - N/A   Clear
11:53 PM 33.1°F 21.0°F 61% 30.30 in 10.0 miles WNW 5.8 mph - N/A   Clear
Astronomy
Sunrise:07:00 AM (EST) Moon Rise:04:47 PM (EST)11/28
Sunset:04:34 PM (EST) Moon Set:06:55 AM (EST)11/28
Moon Phase
Nov. 28 Dec. 06 Dec. 13 Dec. 20 Dec. 28

Copyright © 2014 The Weather Underground, Inc.